Regional Weather Roundup
Issued by NWS Goodland, KS

Home | Current Version | Previous Version | Graphics & Text | Print | Product List | Glossary On
Versions: 1 2 3 4 5 6 7 8 9 10 11 12 13 14 15 16 17 18 19 20 21 22 23 24 25 26 27 28 29 30 31 32 33 34 35 36 37 38 39 40 41 42 43 44 45 46 47 48 49 50
007
ASUS43 KGLD 240808
RWRGLD

GOODLAND FORECAST AREA HOURLY WEATHER ROUNDUP
NATIONAL WEATHER SERVICE GOODLAND KS
200 AM MDT SAT JUN 24 2017

...OFFICIAL OBSERVATIONS...

CITY           SKY/WX    TMP DP  RH WIND       PRES   REMARKS
GOODLAND KS    PTCLDY    54  50  86 NE8       30.26S
HILL CITY KS   CLEAR     52  49  89 N5        30.22F
IMPERIAL NEB   MOCLDY    49  42  77 NE3       30.27R
MCCOOK NEB     PTCLDY    50  46  86 W5        30.24S
AKRON CO       CLOUDY    57  37  47 E5        30.31F
BURLINGTON CO  CLEAR     50  47  89 W7        30.28F
LIMON CO       CLOUDY    52  43  71 N3        30.34F
$$

...UNOFFICIAL OBSERVATIONS...

CITY           SKY/WX    TMP DP  RH WIND       PRES   REMARKS
LENORA KS        N/A     59  32  36 MISG        N/A
NORTON KS      CLEAR     48  39  71 W3        30.22S
SHARON SPRINGS   N/A     55  51  86 W5          N/A
TRENTON NEB      N/A     57  32  39 CALM        N/A
KIT CARSON CO    N/A     54  46  75 CALM        N/A
YUMA CO        FAIR      52  41  66 CALM      30.29S
$$




USA.gov is the U.S. government's official web portal to all federal, state and local government web resources and services.